Location: Fisheating Creek Campgrounds
(26.9333°N, 81.3167°W)
Time: 10:10:48
(UTC-04:00)

Cosmos 2221 Rocket - Visible Passes

Search period start: 25 July 2016 00:00
Search period end: 04 August 2016 00:00
Orbit: 621 x 648 km, 82.5° (Epoch: 25 July)

Date Brightness Start Highest point End Pass type
(mag) Time Alt. Az. Time Alt. Az. Time Alt. Az.
25 Jul 3.7 20:57:32 10° N 21:01:59 80° W 21:06:22 10° S visible
26 Jul 5.4 21:20:12 10° NNW 21:24:07 31° W 21:28:01 10° SSW visible
27 Jul 6.5 21:44:00 10° WNW 21:46:09 13° W 21:48:18 10° WSW visible
29 Jul 5.0 20:48:40 10° NNW 20:52:49 40° W 20:56:57 10° SSW visible
30 Jul 6.4 21:12:00 10° NW 21:14:53 17° W 21:17:45 10° SW visible
02 Aug 6.3 20:40:13 10° NW 20:43:36 22° W 20:46:58 10° SW visible
